STARLINK-31550, 59338

Orbit data source: Space-Track

STARLINK-31550, 59338 is a payload satellite owned by SpaceX/Seattle (US) in LEO that was launched on Mon, 25 Mar 2024 UTC via an FALCON 9 launch vehicle from the Air Force Eastern Test Range (AFETR). Payload-class satellites include a variety of spacecraft equipped with specific instruments for various scientific and technological missions. These include communications satellites like Starlink; space stations such as the ISS; scientific satellites like the Hubble; Earth observation satellites from companies like Planet Labs, Umbra, and HawkEye 360; GPS; miniature CubeSats for education and research; and military/defense satellites.

Loading next visibility...
Identifier
59338, 2024-057U
Orbit
LEO
Country
Flag of USUS
Related business
Manufacturer
SpaceX/Seattle
Mission
Operational Commercial Communications
Bus & Motor
STARLINK V2M, Unknown motor
Mass
730 kg wet, ~700 kg dry
Launch date (UTC)
2024-03-25 (2 years ago)
Launch vehicle
FALCON 9
Launch site
Air Force Eastern Test Range (AFETR)
Object type
Payload
Rocket body
Debris
Shape & HBR
Box + 2 Pan, 17.7 m
Radar Cross Section
33.884 m², Large (>1 m²)

Expand to show TLE details & history
Last TLE update: 2 days ago

TLE from 2 days ago
0 STARLINK-31550
1 59338U 24057U   26171.46869824 -.00001564  00000-0 -47331-4 0  9990
2 59338  43.0033 326.9891 0001102 278.0230  82.0497 15.27566653125551
Epoch: 2026-06-20T11:14Z
TLE epoch observation values (Epoch: 2026-06-20T11:14:55.527Z)
Latitude
-0.00001°
Longitude
-110.42516°
Altitude
482.76 km
Speed
7.626 km/s
True Right ascension
21h 47m 57s
True Declination
0° 00' 00"
Sunlit
Object was in full shadow at epoch
Visualization orbit readout
Latitude
Unknown
Longitude
Unknown
Altitude
Unknown
Speed
Unknown
Apparent Right ascension
Unknown
Apparent Declination
Unknown
Sunlit
N/A
Visualization observer readout
Local Sidereal Time
21:27:46
Azimuth
Unknown
Elevation
Unknown
Doppler factor
Unknown
Orbital elements
Apogee altitude
485.79 km
Perigee altitude
484.277 km
Semi-major axis
6,863.171 km
Eccentricity
0.00011
Inclination
43.0033°
RAAN
326.9891°
Arg. of periapsis
278.023°
True anomaly
82.06221°
Mean anomaly
82.0497°
Eccentric anomaly
82.05595°
Mean motion
3.8173 °/min
Orbital period
94.31 mins
BSTAR
-0.000047331
Loading maneuver chart data...
Computing Atmospheric mass density...
Loading historical data...
Loading historical data...
Loading historical data...
Loading historical data...
Loading historical data...
Loading historical data...
Loading historical data...

Documentation

Showing up to 5 results
|